Year,Month,Day,Hour,Minute,Value (Times are PST for temperature in C)
2020,06,08,00,00,7.90
2020,06,08,00,01,7.90
2020,06,08,00,02,7.80
2020,06,08,00,03,7.80
2020,06,08,00,04,7.80
2020,06,08,00,05,7.80
2020,06,08,00,06,7.80
2020,06,08,00,07,7.80
2020,06,08,00,08,7.70
2020,06,08,00,09,7.70
2020,06,08,00,10,7.70
2020,06,08,00,11,7.70
2020,06,08,00,12,7.70
2020,06,08,00,13,7.70
2020,06,08,00,14,7.70
2020,06,08,00,15,7.60
2020,06,08,00,16,7.60
2020,06,08,00,17,7.60
2020,06,08,00,18,7.60
2020,06,08,00,19,7.60
2020,06,08,00,20,7.60
2020,06,08,00,21,7.60
2020,06,08,00,22,7.60
2020,06,08,00,23,7.60
2020,06,08,00,24,7.60
2020,06,08,00,25,7.60
2020,06,08,00,26,7.60
2020,06,08,00,27,7.60
2020,06,08,00,28,7.50
2020,06,08,00,29,7.50
2020,06,08,00,30,7.40
2020,06,08,00,31,7.40
2020,06,08,00,32,7.40
2020,06,08,00,33,7.40
2020,06,08,00,34,7.40
2020,06,08,00,35,7.30
2020,06,08,00,36,7.30
2020,06,08,00,37,7.30
2020,06,08,00,38,7.30
2020,06,08,00,39,7.30
2020,06,08,00,40,7.30
2020,06,08,00,41,7.30
2020,06,08,00,42,7.30
2020,06,08,00,43,7.30
2020,06,08,00,44,7.30
2020,06,08,00,45,7.30
2020,06,08,00,46,7.20
2020,06,08,00,47,7.20
2020,06,08,00,48,7.20
2020,06,08,00,49,7.20
2020,06,08,00,50,7.20
2020,06,08,00,51,7.20
2020,06,08,00,52,7.20
2020,06,08,00,53,7.20
2020,06,08,00,54,7.10
2020,06,08,00,55,7.10
2020,06,08,00,56,7.10
2020,06,08,00,57,7.10
2020,06,08,00,58,7.10
2020,06,08,00,59,7.10
2020,06,08,01,00,7.10
2020,06,08,01,01,7.10
2020,06,08,01,02,7.10
2020,06,08,01,03,7.10
2020,06,08,01,04,7.10
2020,06,08,01,05,7.10
2020,06,08,01,06,7.10
2020,06,08,01,07,7.10
2020,06,08,01,08,7.10
2020,06,08,01,09,7.10
2020,06,08,01,10,7.10
2020,06,08,01,11,7.10
2020,06,08,01,12,7.10
2020,06,08,01,13,7.00
2020,06,08,01,14,7.10
2020,06,08,01,15,7.10
2020,06,08,01,16,7.10
2020,06,08,01,17,7.10
2020,06,08,01,18,7.10
2020,06,08,01,19,7.00
2020,06,08,01,20,7.00
2020,06,08,01,21,7.00
2020,06,08,01,22,7.00
2020,06,08,01,23,7.00
2020,06,08,01,24,6.90
2020,06,08,01,25,6.90
2020,06,08,01,26,6.90
2020,06,08,01,27,6.90
2020,06,08,01,28,6.90
2020,06,08,01,29,6.90
2020,06,08,01,30,6.90
2020,06,08,01,31,6.90
2020,06,08,01,32,6.90
2020,06,08,01,33,6.90
2020,06,08,01,34,6.90
2020,06,08,01,35,6.90
2020,06,08,01,36,6.90
2020,06,08,01,37,6.90
2020,06,08,01,38,6.90
2020,06,08,01,39,6.90
2020,06,08,01,40,6.90
2020,06,08,01,41,6.90
2020,06,08,01,42,6.90
2020,06,08,01,43,6.90
2020,06,08,01,44,6.90
2020,06,08,01,45,6.90
2020,06,08,01,46,6.80
2020,06,08,01,47,6.80
2020,06,08,01,48,6.80
2020,06,08,01,49,6.80
2020,06,08,01,50,6.80
2020,06,08,01,51,6.80
2020,06,08,01,52,6.80
2020,06,08,01,53,6.80
2020,06,08,01,54,6.80
2020,06,08,01,55,6.80
2020,06,08,01,56,6.80
2020,06,08,01,57,6.80
2020,06,08,01,58,6.80
2020,06,08,01,59,6.80
2020,06,08,02,00,6.70
2020,06,08,02,01,6.80
2020,06,08,02,02,6.80
2020,06,08,02,03,6.70
2020,06,08,02,04,6.80
2020,06,08,02,05,6.80
2020,06,08,02,06,6.80
2020,06,08,02,07,6.80
2020,06,08,02,08,6.80
2020,06,08,02,09,6.80
2020,06,08,02,10,6.80
2020,06,08,02,11,6.80
2020,06,08,02,12,6.80
2020,06,08,02,13,6.80
2020,06,08,02,14,6.80
2020,06,08,02,15,6.80
2020,06,08,02,16,6.80
2020,06,08,02,17,6.80
2020,06,08,02,18,6.80
2020,06,08,02,19,6.80
2020,06,08,02,20,6.80
2020,06,08,02,21,6.80
2020,06,08,02,22,6.80
2020,06,08,02,23,6.80
2020,06,08,02,24,6.80
2020,06,08,02,25,6.80
2020,06,08,02,26,6.80
2020,06,08,02,27,6.80
2020,06,08,02,28,6.80
2020,06,08,02,29,6.80
2020,06,08,02,30,6.80
2020,06,08,02,31,6.80
2020,06,08,02,32,6.80
2020,06,08,02,33,6.80
2020,06,08,02,34,6.80
2020,06,08,02,35,6.80
2020,06,08,02,36,6.80
2020,06,08,02,37,6.80
2020,06,08,02,38,6.80
2020,06,08,02,39,6.80
2020,06,08,02,40,6.80
2020,06,08,02,41,6.80
2020,06,08,02,42,6.80
2020,06,08,02,43,6.80
2020,06,08,02,44,6.80
2020,06,08,02,45,6.80
2020,06,08,02,46,6.80
2020,06,08,02,47,6.80
2020,06,08,02,48,6.80
2020,06,08,02,49,6.90
2020,06,08,02,50,6.90
2020,06,08,02,51,6.90
2020,06,08,02,52,6.90
2020,06,08,02,53,6.90
2020,06,08,02,54,6.90
2020,06,08,02,55,6.90
2020,06,08,02,56,6.90
2020,06,08,02,57,6.90
2020,06,08,02,58,7.00
2020,06,08,02,59,7.00
2020,06,08,03,00,7.00
2020,06,08,03,01,7.00
2020,06,08,03,02,7.10
2020,06,08,03,03,7.10
2020,06,08,03,04,7.10
2020,06,08,03,05,7.10
2020,06,08,03,06,7.10
2020,06,08,03,07,7.10
2020,06,08,03,08,7.10
2020,06,08,03,09,7.10
2020,06,08,03,10,7.10
2020,06,08,03,11,7.10
2020,06,08,03,12,7.10
2020,06,08,03,13,7.10
2020,06,08,03,14,7.00
2020,06,08,03,15,7.00
2020,06,08,03,16,7.00
2020,06,08,03,17,7.00
2020,06,08,03,18,7.00
2020,06,08,03,19,7.10
2020,06,08,03,20,7.10
2020,06,08,03,21,7.10
2020,06,08,03,22,7.10
2020,06,08,03,23,7.10
2020,06,08,03,24,7.10
2020,06,08,03,25,7.20
2020,06,08,03,26,7.20
2020,06,08,03,27,7.20
2020,06,08,03,28,7.20
2020,06,08,03,29,7.20
2020,06,08,03,30,7.20
2020,06,08,03,31,7.10
2020,06,08,03,32,7.10
2020,06,08,03,33,7.10
2020,06,08,03,34,7.20
2020,06,08,03,35,7.20
2020,06,08,03,36,7.20
2020,06,08,03,37,7.20
2020,06,08,03,38,7.20
2020,06,08,03,39,7.20
2020,06,08,03,40,7.20
2020,06,08,03,41,7.20
2020,06,08,03,42,7.30
2020,06,08,03,43,7.30
2020,06,08,03,44,7.30
2020,06,08,03,45,7.30
2020,06,08,03,46,7.30
2020,06,08,03,47,7.30
2020,06,08,03,48,7.30
2020,06,08,03,49,7.30
2020,06,08,03,50,7.30
2020,06,08,03,51,7.20
2020,06,08,03,52,7.20
2020,06,08,03,53,7.20
2020,06,08,03,54,7.20
2020,06,08,03,55,7.10
2020,06,08,03,56,7.10
2020,06,08,03,57,7.10
2020,06,08,03,58,7.10
2020,06,08,03,59,7.00
2020,06,08,04,00,7.00
2020,06,08,04,01,7.00
2020,06,08,04,02,7.00
2020,06,08,04,03,6.90
2020,06,08,04,04,6.90
2020,06,08,04,05,6.90
2020,06,08,04,06,6.90
2020,06,08,04,07,6.90
2020,06,08,04,08,6.90
2020,06,08,04,09,6.90
2020,06,08,04,10,6.90
2020,06,08,04,11,6.90
2020,06,08,04,12,6.90
2020,06,08,04,13,6.90
2020,06,08,04,14,6.90
2020,06,08,04,15,6.90
2020,06,08,04,16,6.90
2020,06,08,04,17,6.90
2020,06,08,04,18,6.90
2020,06,08,04,19,6.90
2020,06,08,04,20,6.90
2020,06,08,04,21,6.90
2020,06,08,04,22,6.80
2020,06,08,04,23,6.80
2020,06,08,04,24,6.80
2020,06,08,04,25,6.80
2020,06,08,04,26,6.80
2020,06,08,04,27,6.80
2020,06,08,04,28,6.80
2020,06,08,04,29,6.80
2020,06,08,04,30,6.80
2020,06,08,04,31,6.80
2020,06,08,04,32,6.80
2020,06,08,04,33,6.80
2020,06,08,04,34,6.80
2020,06,08,04,35,6.80
2020,06,08,04,36,6.80
2020,06,08,04,37,6.70
2020,06,08,04,38,6.80
2020,06,08,04,39,6.70
2020,06,08,04,40,6.70
2020,06,08,04,41,6.70
2020,06,08,04,42,6.70
2020,06,08,04,43,6.70
2020,06,08,04,44,6.70
2020,06,08,04,45,6.70
2020,06,08,04,46,6.70
2020,06,08,04,47,6.70
2020,06,08,04,48,6.70
2020,06,08,04,49,6.70
2020,06,08,04,50,6.70
2020,06,08,04,51,6.60
2020,06,08,04,52,6.60
2020,06,08,04,53,6.60
2020,06,08,04,54,6.60
2020,06,08,04,55,6.60
2020,06,08,04,56,6.60
2020,06,08,04,57,6.60
2020,06,08,04,58,6.60
2020,06,08,04,59,6.60
2020,06,08,05,00,6.60
2020,06,08,05,01,6.70
2020,06,08,05,02,6.70
2020,06,08,05,03,6.70
2020,06,08,05,04,6.70
2020,06,08,05,05,6.70
2020,06,08,05,06,6.70
2020,06,08,05,07,6.70
2020,06,08,05,08,6.60
2020,06,08,05,09,6.70
2020,06,08,05,10,6.70
2020,06,08,05,11,6.70
2020,06,08,05,12,6.70
2020,06,08,05,13,6.70
2020,06,08,05,14,6.70
2020,06,08,05,15,6.70
2020,06,08,05,16,6.70
2020,06,08,05,17,6.70
2020,06,08,05,18,6.60
2020,06,08,05,19,6.60
2020,06,08,05,20,6.60
2020,06,08,05,21,6.60
2020,06,08,05,22,6.60
2020,06,08,05,23,6.60
2020,06,08,05,24,6.60
2020,06,08,05,25,6.60
2020,06,08,05,26,6.60
2020,06,08,05,27,6.60
2020,06,08,05,28,6.60
2020,06,08,05,29,6.60
2020,06,08,05,30,6.50
2020,06,08,05,31,6.50
2020,06,08,05,32,6.50
2020,06,08,05,33,6.50
2020,06,08,05,34,6.50
2020,06,08,05,35,6.50
2020,06,08,05,36,6.50
2020,06,08,05,37,6.60
2020,06,08,05,38,6.60
2020,06,08,05,39,6.60
2020,06,08,05,40,6.60
2020,06,08,05,41,6.60
2020,06,08,05,42,6.60
2020,06,08,05,43,6.60
2020,06,08,05,44,6.60
2020,06,08,05,45,6.60
2020,06,08,05,46,6.60
2020,06,08,05,47,6.60
2020,06,08,05,48,6.60
2020,06,08,05,49,6.60
2020,06,08,05,50,6.60
2020,06,08,05,51,6.50
2020,06,08,05,52,6.50
2020,06,08,05,53,6.50
2020,06,08,05,54,6.50
2020,06,08,05,55,6.50
2020,06,08,05,56,6.50
2020,06,08,05,57,6.50
2020,06,08,05,58,6.60
2020,06,08,05,59,6.60
2020,06,08,06,00,6.60
2020,06,08,06,01,6.60
2020,06,08,06,02,6.60
2020,06,08,06,03,6.70
2020,06,08,06,04,6.70
2020,06,08,06,05,6.70
2020,06,08,06,06,6.70
2020,06,08,06,07,6.70
2020,06,08,06,08,6.70
2020,06,08,06,09,6.80
2020,06,08,06,10,6.80
2020,06,08,06,11,6.80
2020,06,08,06,12,6.80
2020,06,08,06,13,6.80
2020,06,08,06,14,6.80
2020,06,08,06,15,6.90
2020,06,08,06,16,6.90
2020,06,08,06,17,6.90
2020,06,08,06,18,6.90
2020,06,08,06,19,6.90
2020,06,08,06,20,6.90
2020,06,08,06,21,7.00
2020,06,08,06,22,7.00
2020,06,08,06,23,7.00
2020,06,08,06,24,7.10
2020,06,08,06,25,7.10
2020,06,08,06,26,7.10
2020,06,08,06,27,7.20
2020,06,08,06,28,7.20
2020,06,08,06,29,7.20
2020,06,08,06,30,7.30
2020,06,08,06,31,7.30
2020,06,08,06,32,7.30
2020,06,08,06,33,7.30
2020,06,08,06,34,7.40
2020,06,08,06,35,7.40
2020,06,08,06,36,7.40
2020,06,08,06,37,7.40
2020,06,08,06,38,7.40
2020,06,08,06,39,7.50
2020,06,08,06,40,7.50
2020,06,08,06,41,7.50
2020,06,08,06,42,7.50
2020,06,08,06,43,7.60
2020,06,08,06,44,7.60
2020,06,08,06,45,7.60
2020,06,08,06,46,7.60
2020,06,08,06,47,7.60
2020,06,08,06,48,7.70
2020,06,08,06,49,7.70
2020,06,08,06,50,7.70
2020,06,08,06,51,7.70
2020,06,08,06,52,7.70
2020,06,08,06,53,7.70
2020,06,08,06,54,7.70
2020,06,08,06,55,7.70
2020,06,08,06,56,7.70
2020,06,08,06,57,7.70
2020,06,08,06,58,7.80
2020,06,08,06,59,7.80
2020,06,08,07,00,7.80
2020,06,08,07,01,7.80
2020,06,08,07,02,7.90
2020,06,08,07,03,7.90
2020,06,08,07,04,7.90
2020,06,08,07,05,7.90
2020,06,08,07,06,7.90
2020,06,08,07,07,8.00
2020,06,08,07,08,8.00
2020,06,08,07,09,8.00
2020,06,08,07,10,8.00
2020,06,08,07,11,8.00
2020,06,08,07,12,8.00
2020,06,08,07,13,8.10
2020,06,08,07,14,8.10
2020,06,08,07,15,8.10
2020,06,08,07,16,8.10
2020,06,08,07,17,8.10
2020,06,08,07,18,8.10
2020,06,08,07,19,8.20
2020,06,08,07,20,8.20
2020,06,08,07,21,8.20
2020,06,08,07,22,8.20
2020,06,08,07,23,8.20
2020,06,08,07,24,8.30
2020,06,08,07,25,8.30
2020,06,08,07,26,8.30
2020,06,08,07,27,8.30
2020,06,08,07,28,8.40
2020,06,08,07,29,8.40
2020,06,08,07,30,8.40
2020,06,08,07,31,8.50
2020,06,08,07,32,8.50
2020,06,08,07,33,8.60
2020,06,08,07,34,8.60
2020,06,08,07,35,8.70
2020,06,08,07,36,8.70
2020,06,08,07,37,8.80
2020,06,08,07,38,8.80
2020,06,08,07,39,8.80
2020,06,08,07,40,8.90
2020,06,08,07,41,8.90
2020,06,08,07,42,8.90
2020,06,08,07,43,9.00
2020,06,08,07,44,9.00
2020,06,08,07,45,9.10
2020,06,08,07,46,9.20
2020,06,08,07,47,9.20
2020,06,08,07,48,9.30
2020,06,08,07,49,9.40
2020,06,08,07,50,9.40
2020,06,08,07,51,9.50
2020,06,08,07,52,9.60
2020,06,08,07,53,9.70
2020,06,08,07,54,9.80
2020,06,08,07,55,9.80
2020,06,08,07,56,9.90
2020,06,08,07,57,10.00
2020,06,08,07,58,10.00
2020,06,08,07,59,10.10
2020,06,08,08,00,10.20
2020,06,08,08,01,10.30
2020,06,08,08,02,10.30
2020,06,08,08,03,10.40
2020,06,08,08,04,10.50
2020,06,08,08,05,10.60
2020,06,08,08,06,10.70
2020,06,08,08,07,10.70
2020,06,08,08,08,10.80
2020,06,08,08,09,10.90
2020,06,08,08,10,10.90
2020,06,08,08,11,11.00
2020,06,08,08,12,11.10
2020,06,08,08,13,11.10
2020,06,08,08,14,11.20
2020,06,08,08,15,11.20
2020,06,08,08,16,11.20
2020,06,08,08,17,11.30
2020,06,08,08,18,11.30
2020,06,08,08,19,11.40
2020,06,08,08,20,11.50
2020,06,08,08,21,11.60
2020,06,08,08,22,11.70
2020,06,08,08,23,11.80
2020,06,08,08,24,11.90
2020,06,08,08,25,12.00
2020,06,08,08,26,12.00
2020,06,08,08,27,12.00
2020,06,08,08,28,11.90
2020,06,08,08,29,11.90
2020,06,08,08,30,11.90
2020,06,08,08,31,11.90
2020,06,08,08,32,11.90
2020,06,08,08,33,11.90
2020,06,08,08,34,12.00
2020,06,08,08,35,12.00
2020,06,08,08,36,12.00
2020,06,08,08,37,12.10
2020,06,08,08,38,12.10
2020,06,08,08,39,12.20
2020,06,08,08,40,12.30
2020,06,08,08,41,12.30
2020,06,08,08,42,12.30
2020,06,08,08,43,12.40
2020,06,08,08,44,12.50
2020,06,08,08,45,12.60
2020,06,08,08,46,12.60
2020,06,08,08,47,12.70
2020,06,08,08,48,12.80
2020,06,08,08,49,12.80
2020,06,08,08,50,12.80
2020,06,08,08,51,12.80
2020,06,08,08,52,12.80
2020,06,08,08,53,12.80
2020,06,08,08,54,12.80
2020,06,08,08,55,12.80
2020,06,08,08,56,12.80
2020,06,08,08,57,12.80
2020,06,08,08,58,12.80
2020,06,08,08,59,12.90
2020,06,08,09,00,12.90
2020,06,08,09,01,12.90
2020,06,08,09,02,13.00
2020,06,08,09,03,13.10
2020,06,08,09,04,13.10
2020,06,08,09,05,13.20
2020,06,08,09,06,13.20
2020,06,08,09,07,13.20
2020,06,08,09,08,13.20
2020,06,08,09,09,13.20
2020,06,08,09,10,13.20
2020,06,08,09,11,13.20
2020,06,08,09,12,13.20
2020,06,08,09,13,13.20
2020,06,08,09,14,13.20
2020,06,08,09,15,13.30
2020,06,08,09,16,13.30
2020,06,08,09,17,13.30
2020,06,08,09,18,13.30
2020,06,08,09,19,13.30
2020,06,08,09,20,13.30
2020,06,08,09,21,13.30
2020,06,08,09,22,13.40
2020,06,08,09,23,13.40
2020,06,08,09,24,13.50
2020,06,08,09,25,13.60
2020,06,08,09,26,13.70
2020,06,08,09,27,13.80
2020,06,08,09,28,13.80
2020,06,08,09,29,13.90
2020,06,08,09,30,14.00
2020,06,08,09,31,14.10
2020,06,08,09,32,14.20
2020,06,08,09,33,14.30
2020,06,08,09,34,14.30
2020,06,08,09,35,14.30
2020,06,08,09,36,14.30
2020,06,08,09,37,14.30
2020,06,08,09,38,14.30
2020,06,08,09,39,14.20
2020,06,08,09,40,14.20
2020,06,08,09,41,14.10
2020,06,08,09,42,14.00
2020,06,08,09,43,13.90
2020,06,08,09,44,13.90
2020,06,08,09,45,13.80
2020,06,08,09,46,13.80
2020,06,08,09,47,13.80
2020,06,08,09,48,13.70
2020,06,08,09,49,13.70
2020,06,08,09,50,13.70
2020,06,08,09,51,13.70
2020,06,08,09,52,13.70
2020,06,08,09,53,13.70
2020,06,08,09,54,13.80
2020,06,08,09,55,13.80
2020,06,08,09,56,13.80
2020,06,08,09,57,13.80
2020,06,08,09,58,13.70
2020,06,08,09,59,13.70
2020,06,08,10,00,13.80
2020,06,08,10,01,13.90
2020,06,08,10,02,13.90
2020,06,08,10,03,14.00
2020,06,08,10,04,14.00
2020,06,08,10,05,14.10
2020,06,08,10,06,14.10
2020,06,08,10,07,14.10
2020,06,08,10,08,14.10
2020,06,08,10,09,14.10
2020,06,08,10,10,14.10
2020,06,08,10,11,14.00
2020,06,08,10,12,13.90
2020,06,08,10,13,13.80
2020,06,08,10,14,13.70
2020,06,08,10,15,13.70
2020,06,08,10,16,13.70
2020,06,08,10,17,13.80
2020,06,08,10,18,13.80
2020,06,08,10,19,13.80
2020,06,08,10,20,13.90
2020,06,08,10,21,13.90
2020,06,08,10,22,13.90
2020,06,08,10,23,13.90
2020,06,08,10,24,13.80
2020,06,08,10,25,13.80
2020,06,08,10,26,13.80
2020,06,08,10,27,13.80
2020,06,08,10,28,13.70
2020,06,08,10,29,13.70
2020,06,08,10,30,13.70
2020,06,08,10,31,13.60
2020,06,08,10,32,13.70
2020,06,08,10,33,13.70
2020,06,08,10,34,13.70
2020,06,08,10,35,13.70
2020,06,08,10,36,13.70
2020,06,08,10,37,13.70
2020,06,08,10,38,13.70
2020,06,08,10,39,13.70
2020,06,08,10,40,13.70
2020,06,08,10,41,13.70
2020,06,08,10,42,13.70
2020,06,08,10,43,13.60
2020,06,08,10,44,13.70
2020,06,08,10,45,13.70
2020,06,08,10,46,13.70
2020,06,08,10,47,13.70
2020,06,08,10,48,13.70
2020,06,08,10,49,13.70
2020,06,08,10,50,13.70
2020,06,08,10,51,13.70
2020,06,08,10,52,13.70
2020,06,08,10,53,13.70
2020,06,08,10,54,13.70
2020,06,08,10,55,13.80
2020,06,08,10,56,13.80
2020,06,08,10,57,13.90
2020,06,08,10,58,13.90
2020,06,08,10,59,13.90
2020,06,08,11,00,13.90
2020,06,08,11,01,13.90
2020,06,08,11,02,13.90
2020,06,08,11,03,13.90
2020,06,08,11,04,13.80
2020,06,08,11,05,13.80
2020,06,08,11,06,13.80
2020,06,08,11,07,13.80
2020,06,08,11,08,13.90
2020,06,08,11,09,14.00
2020,06,08,11,10,14.10
2020,06,08,11,11,14.20
2020,06,08,11,12,14.30
2020,06,08,11,13,14.50
2020,06,08,11,14,14.50
2020,06,08,11,15,14.60
2020,06,08,11,16,14.60
2020,06,08,11,17,14.60
2020,06,08,11,18,14.60
2020,06,08,11,19,14.60
2020,06,08,11,20,14.50
2020,06,08,11,21,14.50
2020,06,08,11,22,14.40
2020,06,08,11,23,14.40
2020,06,08,11,24,14.40
2020,06,08,11,25,14.40
2020,06,08,11,26,14.40
2020,06,08,11,27,14.40
2020,06,08,11,28,14.40
2020,06,08,11,29,14.40
2020,06,08,11,30,14.30
2020,06,08,11,31,14.30
2020,06,08,11,32,14.30
2020,06,08,11,33,14.30
2020,06,08,11,34,14.20
2020,06,08,11,35,14.20
2020,06,08,11,36,14.20
2020,06,08,11,37,14.10
2020,06,08,11,38,14.10
2020,06,08,11,39,14.10
2020,06,08,11,40,14.10
2020,06,08,11,41,14.10
2020,06,08,11,42,14.20
2020,06,08,11,43,14.30
2020,06,08,11,44,14.40
2020,06,08,11,45,14.40
2020,06,08,11,46,14.50
2020,06,08,11,47,14.60
2020,06,08,11,48,14.70
2020,06,08,11,49,14.70
2020,06,08,11,50,14.80
2020,06,08,11,51,14.80
2020,06,08,11,52,14.90
2020,06,08,11,53,14.90
2020,06,08,11,54,15.00
2020,06,08,11,55,15.00
2020,06,08,11,56,15.10
2020,06,08,11,57,15.10
2020,06,08,11,58,15.10
2020,06,08,11,59,15.20
2020,06,08,12,00,15.20
2020,06,08,12,01,15.30
2020,06,08,12,02,15.30
2020,06,08,12,03,15.40
2020,06,08,12,04,15.50
2020,06,08,12,05,15.60
2020,06,08,12,06,15.60
2020,06,08,12,07,15.60
2020,06,08,12,08,15.60
2020,06,08,12,09,15.60
2020,06,08,12,10,15.50
2020,06,08,12,11,15.50
2020,06,08,12,12,15.50
2020,06,08,12,13,15.60
2020,06,08,12,14,15.60
2020,06,08,12,15,15.60
2020,06,08,12,16,15.70
2020,06,08,12,17,15.60
2020,06,08,12,18,15.60
2020,06,08,12,19,15.60
2020,06,08,12,20,15.60
2020,06,08,12,21,15.60
2020,06,08,12,22,15.60
2020,06,08,12,23,15.60
2020,06,08,12,24,15.60
2020,06,08,12,25,15.50
2020,06,08,12,26,15.40
2020,06,08,12,27,15.40
2020,06,08,12,28,15.40
2020,06,08,12,29,15.40
2020,06,08,12,30,15.40
2020,06,08,12,31,15.50
2020,06,08,12,32,15.50
2020,06,08,12,33,15.60
2020,06,08,12,34,15.70
2020,06,08,12,35,15.70
2020,06,08,12,36,15.70
2020,06,08,12,37,15.70
2020,06,08,12,38,15.70
2020,06,08,12,39,15.70
2020,06,08,12,40,15.70
2020,06,08,12,41,15.70
2020,06,08,12,42,15.70
2020,06,08,12,43,15.70
2020,06,08,12,44,15.70
2020,06,08,12,45,15.60
2020,06,08,12,46,15.60
2020,06,08,12,47,15.60
2020,06,08,12,48,15.60
2020,06,08,12,49,15.60
2020,06,08,12,50,15.60
2020,06,08,12,51,15.60
2020,06,08,12,52,15.60
2020,06,08,12,53,15.70
2020,06,08,12,54,15.70
2020,06,08,12,55,15.80
2020,06,08,12,56,15.80
2020,06,08,12,57,15.80
2020,06,08,12,58,15.80
2020,06,08,12,59,15.90
2020,06,08,13,00,15.90
2020,06,08,13,01,15.90
2020,06,08,13,02,15.90
2020,06,08,13,03,15.90
2020,06,08,13,04,16.00
2020,06,08,13,05,15.90
2020,06,08,13,06,15.90
2020,06,08,13,07,15.80
2020,06,08,13,08,15.80
2020,06,08,13,09,15.70
2020,06,08,13,10,15.70
2020,06,08,13,11,15.70
2020,06,08,13,12,15.70
2020,06,08,13,13,15.80
2020,06,08,13,14,15.80
2020,06,08,13,15,15.80
2020,06,08,13,16,15.90
2020,06,08,13,17,15.90
2020,06,08,13,18,16.00
2020,06,08,13,19,16.10
2020,06,08,13,20,16.20
2020,06,08,13,21,16.30
2020,06,08,13,22,16.30
2020,06,08,13,23,16.30
2020,06,08,13,24,16.30
2020,06,08,13,25,16.20
2020,06,08,13,26,16.20
2020,06,08,13,27,16.20
2020,06,08,13,28,16.20
2020,06,08,13,29,16.20
2020,06,08,13,30,16.20
2020,06,08,13,31,16.20
2020,06,08,13,32,16.20
2020,06,08,13,33,16.20
2020,06,08,13,34,16.30
2020,06,08,13,35,16.30
2020,06,08,13,36,16.30
2020,06,08,13,37,16.30
2020,06,08,13,38,16.30
2020,06,08,13,39,16.30
2020,06,08,13,40,16.40
2020,06,08,13,41,16.40
2020,06,08,13,42,16.50
2020,06,08,13,43,16.50
2020,06,08,13,44,16.50
2020,06,08,13,45,16.50
2020,06,08,13,46,16.40
2020,06,08,13,47,16.40
2020,06,08,13,48,16.30
2020,06,08,13,49,16.30
2020,06,08,13,50,16.20
2020,06,08,13,51,16.20
2020,06,08,13,52,16.20
2020,06,08,13,53,16.20
2020,06,08,13,54,16.20
2020,06,08,13,55,16.20
2020,06,08,13,56,16.20
2020,06,08,13,57,16.20
2020,06,08,13,58,16.20
2020,06,08,13,59,16.20
2020,06,08,14,00,16.20
2020,06,08,14,01,16.20
2020,06,08,14,02,16.20
2020,06,08,14,03,16.20
2020,06,08,14,04,16.20
2020,06,08,14,05,16.20
2020,06,08,14,06,16.20
2020,06,08,14,07,16.20
2020,06,08,14,08,16.20
2020,06,08,14,09,16.10
2020,06,08,14,10,16.00
2020,06,08,14,11,16.00
2020,06,08,14,12,15.90
2020,06,08,14,13,15.90
2020,06,08,14,14,15.90
2020,06,08,14,15,15.90
2020,06,08,14,16,16.00
2020,06,08,14,17,16.00
2020,06,08,14,18,16.10
2020,06,08,14,19,16.10
2020,06,08,14,20,16.10
2020,06,08,14,21,16.20
2020,06,08,14,22,16.20
2020,06,08,14,23,16.20
2020,06,08,14,24,16.20
2020,06,08,14,25,16.20
2020,06,08,14,26,16.20
2020,06,08,14,27,16.20
2020,06,08,14,28,16.10
2020,06,08,14,29,16.10
2020,06,08,14,30,16.10
2020,06,08,14,31,16.10
2020,06,08,14,32,16.10
2020,06,08,14,33,16.10
2020,06,08,14,34,16.10
2020,06,08,14,35,16.10
2020,06,08,14,36,16.00
2020,06,08,14,37,16.00
2020,06,08,14,38,15.90
2020,06,08,14,39,15.90
2020,06,08,14,40,15.90
2020,06,08,14,41,15.80
2020,06,08,14,42,15.80
2020,06,08,14,43,15.80
2020,06,08,14,44,15.80
2020,06,08,14,45,15.80
2020,06,08,14,46,15.90
2020,06,08,14,47,15.90
2020,06,08,14,48,15.90
2020,06,08,14,49,15.90
2020,06,08,14,50,15.90
2020,06,08,14,51,15.90
2020,06,08,14,52,15.90
2020,06,08,14,53,15.90
2020,06,08,14,54,15.90
2020,06,08,14,55,15.80
2020,06,08,14,56,15.90
2020,06,08,14,57,15.90
2020,06,08,14,58,15.90
2020,06,08,14,59,15.90
2020,06,08,15,00,15.90
2020,06,08,15,01,16.00
2020,06,08,15,02,16.00
2020,06,08,15,03,16.00
2020,06,08,15,04,16.00
2020,06,08,15,05,16.00
2020,06,08,15,06,16.10
2020,06,08,15,07,16.10
2020,06,08,15,08,16.10
2020,06,08,15,09,16.10
2020,06,08,15,10,16.10
2020,06,08,15,11,16.10
2020,06,08,15,12,16.10
2020,06,08,15,13,16.10
2020,06,08,15,14,16.10
2020,06,08,15,15,16.10
2020,06,08,15,16,16.10
2020,06,08,15,17,16.10
2020,06,08,15,18,16.10
2020,06,08,15,19,16.10
2020,06,08,15,20,16.10
2020,06,08,15,21,16.00
2020,06,08,15,22,16.00
2020,06,08,15,23,16.00
2020,06,08,15,24,16.10
2020,06,08,15,25,16.10
2020,06,08,15,26,16.20
2020,06,08,15,27,16.30
2020,06,08,15,28,16.40
2020,06,08,15,29,16.50
2020,06,08,15,30,16.50
2020,06,08,15,31,16.60
2020,06,08,15,32,16.60
2020,06,08,15,33,16.60
2020,06,08,15,34,16.60
2020,06,08,15,35,16.60
2020,06,08,15,36,16.50
2020,06,08,15,37,16.50
2020,06,08,15,38,16.40
2020,06,08,15,39,16.40
2020,06,08,15,40,16.30
2020,06,08,15,41,16.30
2020,06,08,15,42,16.20
2020,06,08,15,43,16.20
2020,06,08,15,44,16.10
2020,06,08,15,45,16.10
2020,06,08,15,46,16.10
2020,06,08,15,47,16.10
2020,06,08,15,48,16.00
2020,06,08,15,49,16.00
2020,06,08,15,50,16.00
2020,06,08,15,51,16.00
2020,06,08,15,52,16.00
2020,06,08,15,53,16.10
2020,06,08,15,54,16.10
2020,06,08,15,55,16.20
2020,06,08,15,56,16.20
2020,06,08,15,57,16.20
2020,06,08,15,58,16.20
2020,06,08,15,59,16.20
2020,06,08,16,00,16.20
2020,06,08,16,01,16.10
2020,06,08,16,02,16.10
2020,06,08,16,03,16.10
2020,06,08,16,04,16.10
2020,06,08,16,05,16.10
2020,06,08,16,06,16.10
2020,06,08,16,07,16.10
2020,06,08,16,08,16.10
2020,06,08,16,09,16.10
2020,06,08,16,10,16.10
2020,06,08,16,11,16.10
2020,06,08,16,12,16.10
2020,06,08,16,13,16.10
2020,06,08,16,14,16.10
2020,06,08,16,15,16.10
2020,06,08,16,16,16.10
2020,06,08,16,17,16.10
2020,06,08,16,18,16.10
2020,06,08,16,19,16.00
2020,06,08,16,20,16.00
2020,06,08,16,21,16.10
2020,06,08,16,22,16.10
2020,06,08,16,23,16.10
2020,06,08,16,24,16.10
2020,06,08,16,25,16.20
2020,06,08,16,26,16.20
2020,06,08,16,27,16.30
2020,06,08,16,28,16.40
2020,06,08,16,29,16.50
2020,06,08,16,30,16.60
2020,06,08,16,31,16.60
2020,06,08,16,32,16.70
2020,06,08,16,33,16.70
2020,06,08,16,34,16.70
2020,06,08,16,35,16.70
2020,06,08,16,36,16.60
2020,06,08,16,37,16.60
2020,06,08,16,38,16.60
2020,06,08,16,39,16.60
2020,06,08,16,40,16.60
2020,06,08,16,41,16.60
2020,06,08,16,42,16.70
2020,06,08,16,43,16.70
2020,06,08,16,44,16.80
2020,06,08,16,45,16.80
2020,06,08,16,46,16.80
2020,06,08,16,47,16.90
2020,06,08,16,48,16.90
2020,06,08,16,49,16.90
2020,06,08,16,50,16.90
2020,06,08,16,51,17.00
2020,06,08,16,52,17.00
2020,06,08,16,53,17.00
2020,06,08,16,54,17.10
2020,06,08,16,55,17.10
2020,06,08,16,56,17.20
2020,06,08,16,57,17.10
2020,06,08,16,58,17.00
2020,06,08,16,59,17.00
2020,06,08,17,00,16.90
2020,06,08,17,01,16.90
2020,06,08,17,02,16.90
2020,06,08,17,03,16.90
2020,06,08,17,04,16.90
2020,06,08,17,05,16.90
2020,06,08,17,06,16.90
2020,06,08,17,07,16.90
2020,06,08,17,08,16.90
2020,06,08,17,09,16.90
2020,06,08,17,10,16.90
2020,06,08,17,11,16.90
2020,06,08,17,12,16.90
2020,06,08,17,13,16.90
2020,06,08,17,14,16.80
2020,06,08,17,15,16.80
2020,06,08,17,16,16.80
2020,06,08,17,17,16.80
2020,06,08,17,18,16.80
2020,06,08,17,19,16.80
2020,06,08,17,20,16.80
2020,06,08,17,21,16.90
2020,06,08,17,22,16.90
2020,06,08,17,23,17.00
2020,06,08,17,24,17.00
2020,06,08,17,25,17.10
2020,06,08,17,26,17.10
2020,06,08,17,27,17.20
2020,06,08,17,28,17.30
2020,06,08,17,29,17.30
2020,06,08,17,30,17.30
2020,06,08,17,31,17.30
2020,06,08,17,32,17.30
2020,06,08,17,33,17.30
2020,06,08,17,34,17.30
2020,06,08,17,35,17.30
2020,06,08,17,36,17.40
2020,06,08,17,37,17.50
2020,06,08,17,38,17.60
2020,06,08,17,39,17.60
2020,06,08,17,40,17.70